Regional Weather Roundup
Issued by NWS Sterling, VA

Home | Current Version | Previous Version | Graphics & Text | Print | Product List | Glossary On
Versions: 1 2 3 4 5 6 7 8 9 10 11 12 13 14 15 16 17 18 19 20 21 22 23 24 25 26 27 28 29 30 31 32 33 34 35 36 37 38 39 40 41 42 43 44 45 46 47 48 49 50
644
ASUS41 KLWX 242311
RWRLWX

REGIONAL WEATHER ROUNDUP
NATIONAL WEATHER SERVICE BALTIMORE MD/WASHINGTON DC
700 PM EDT SAT SEP 24 2016

Note: "FAIR" indicates few or no clouds below 12,000 feet
with no significant weather and/or obstructions to visibility.
 TC=TEMPERATURE CELSIUS

 * =Non NWS site. Station does not report precipitation (e.g. rain,
    snow, etc.), thunder, or fog.

DCZ001-MDZ009-015-VAZ040>042-051-053>054-250000-
WASHINGTON METRO

CITY           SKY/WX    TMP DP  RH WIND       PRES   REMARKS
WASHINGTON NAT PTCLDY    71  62  73 NE8       30.10R
DULLES         PTCLDY    69  60  73 E8        30.10R
ANDREWS AFB    CLOUDY    68  60  77 NE7       30.10R
FT BELVOIR     PTCLDY    70  61  73 VRB1      30.10R
QUANTICO         N/A     73  64  73 E10       30.10R
COLLEGE PARK*  PTCLDY    66  59  77 CALM      30.10R
LEESBURG*      CLEAR     72  63  73 SE7       30.11R
MANASSAS*      CLOUDY    72  63  73 E5        30.10R
GAITHERSBURG*  CLEAR     66  57  72 CALM      30.14R

$$

MDZ006>007-011-014-250000-
BALTIMORE METRO

CITY           SKY/WX    TMP DP  RH WIND       PRES   REMARKS
BWI AIRPORT    PTCLDY    68  58  70 SE7       30.10R
MD SCIENCE CTR   N/A     71  56  58 MISG      30.10R
MARTIN STATE   PTCLDY    70  63  78 CALM      30.12
ANNAPOLIS      PTCLDY    70  61  73 NE3       30.10R
FORT MEADE*    CLEAR     64  59  82 SE3       30.13R

$$

MDZ012-015-019>023-250000-
MARYLAND EASTERN SHORE

CITY           SKY/WX    TMP DP  RH WIND       PRES   REMARKS
OCEAN CITY     CLOUDY    67  63  87 NE10      30.09R
SALISBURY      CLOUDY    65  62  90 NE5       30.10R
BAY BRIDGE AP* CLOUDY    68  61  77 MISG      30.11R
CAMBRIDGE*     CLOUDY    64  61  88 NE5       30.10R
EASTON*        CLOUDY    66  59  77 E5        30.14R

$$

MDZ017>025-250000-
SOUTHERN MARYLAND

CITY           SKY/WX    TMP DP  RH WIND       PRES   REMARKS
PATUXENT RIVER CLOUDY    69  62  78 NE7       30.09R
ST INIGOES     CLOUDY    69  64  84 NE8       30.09R
LEONARDTOWN*   CLOUDY    68  63  83 NE3       30.11R

$$

MDZ003>005-250000-
NORTH CENTRAL MARYLAND

CITY           SKY/WX    TMP DP  RH WIND       PRES   REMARKS
FREDERICK*     CLEAR     72  61  68 CALM      30.12R
HAGERSTOWN APT CLEAR     72  46  39 N10       30.11R

$$

MDZ501>502-250000-
WESTERN MARYLAND

CITY           SKY/WX    TMP DP  RH WIND       PRES   REMARKS
OAKLAND*         N/A     59  57  94 NW5       30.20S
CUMBERLAND*    CLEAR     72  59  64 N8        30.16R

$$

VAZ025>031-250000-
SHENANDOAH VALLEY

CITY           SKY/WX    TMP DP  RH WIND       PRES   REMARKS
WINCHESTER*    CLEAR     70  57  64 CALM      30.10S
FRONT ROYAL*   FAIR      70  61  73 CALM      30.10R
LURAY*         CLOUDY    72  61  68 N7        30.11R
NEW MARKET*    MOCLDY   N/A N/A N/A N9        30.09R
STAUNTON*      CLOUDY    75  64  70 NE7       30.11R
WAYNESBORO*    MOCLDY    76  66  71 E6        30.09R

$$

WVZ021-048>050-054>055-250000-
EASTERN WEST VIRGINIA PANHANDLE

CITY           SKY/WX    TMP DP  RH WIND       PRES   REMARKS
MARTINSBURG    PTCLDY    72  56  57 N5        30.10R
PETERSBURG*    CLOUDY    78  64  61 NE5       30.09R

$$

VAZ036>039-050-250000-
CENTRAL FOOTHILLS

CITY           SKY/WX    TMP DP  RH WIND       PRES   REMARKS
CHARLOTTESVILL PTCLDY    78  65  63 NE9       30.08R
CULPEPER*      CLOUDY    74  66  77 CALM      30.10R
ORANGE*          N/A     73  66  78 CALM      30.10R
GORDONSVILLE*  CLOUDY    73  66  78 NE6       30.08R
WARRENTON*     CLOUDY    73  61  66 NE6       30.10R

$$

VAZ055>057-250000-
NORTH AND CENTRAL PIEDMONT

CITY           SKY/WX    TMP DP  RH WIND       PRES   REMARKS
FREDERICKSBRG* MOCLDY    73  67  81 NE5       30.08R
STAFFORD*      MOCLDY    70  64  81 NE3       30.13R

$$

NCZ024-NYZ072-PAZ021-071-VAZ022-071-250000-
OTHER REGIONAL OBSERVATIONS

CITY           SKY/WX    TMP DP  RH WIND       PRES   REMARKS
NEW YORK CITY  CLEAR     66  43  43 VRB5      30.12R
PHILADELPHIA   PTCLDY    68  54  60 SE5       30.10R
PITTSBURGH     CLEAR     70  51  51 N9        30.15S
ROANOKE        MOCLDY    85  61  44 NW7       30.07S
RICHMOND       PTCLDY    72  64  76 NE10      30.06R
RALEIGH        PTCLDY    83  68  60 CALM      30.02S

$$

ANZ530>537-250000-
MARINE OBSERVATIONS

STATION/POSITION TIME  TEMP    WIND        PRES
                       AIR SEA DIR/SP/G
                 (UTC) (F)     (DEG/KT/KT) (MB)
THOMAS PT LIGHT  2300   67 76   90/  8/  9 1020.8R
BALT KEY BRIDGE  2242           60/  6/  7 1019.2R
COVE POINT       2242           80/  9/ 11 1019.6R
LEWISETTA        2242      77   70/  9/ 12 1018.3R
SOLOMONS ISLAND  2242      77   30/  7/  9   N/A
PINEY POINT      2242           70/  4/  6   N/A

$$





USA.gov is the U.S. government's official web portal to all federal, state and local government web resources and services.